Regional Weather Roundup
Issued by NWS

Home | Current Version | Previous Version | Graphics & Text | Print | Product List | Glossary Off
Versions: 1 2 3 4 5 6 7 8 9 10 11 12 13 14 15 16 17 18 19 20 21 22 23 24 25 26 27 28 29 30 31 32 33 34 35 36 37 38 39 40 41 42 43 44 45 46 47 48 49 50

000
ASUS43 KTOP 251308
RWRKS

WEATHER ROUNDUP FOR KANSAS
NATIONAL WEATHER SERVICE GOODLAND KS
800 AM CDT WED MAY 25 2016

NOTE:  "FAIR" INDICATES FEW OR NO CLOUDS BELOW 12,000 FEET WITH NO
SIGNIFICANT WEATHER AND/OR OBSTRUCTIONS TO VISIBILITY.

KSZ001>006-013>018-027>032-041>047-251400-
NORTHWEST KANSAS

CITY           SKY/WX    TMP DP  RH WIND       PRES   REMARKS
GOODLAND       CLOUDY    56  55  97 E15       29.90S
HILL CITY      CLOUDY    61  56  83 NE14      29.87R
RUSSELL        CLOUDY    64  61  90 N7        29.85R
$$

KSZ061>065-074>080-084>089-251400-
SOUTHWEST KANSAS

CITY           SKY/WX    TMP DP  RH WIND       PRES   REMARKS
DODGE CITY     MOSUNNY   65  65 100 S13       29.82R FOG
ELKHART          N/A     60  35  39 W9          N/A
GARDEN CITY    SUNNY     57  51  80 NW10      29.84R
GREAT BEND     CLOUDY    64  57  77 SE18      29.81S
LIBERAL        SUNNY     59  46  63 W9        29.87R
PRATT          CLOUDY    64  63  97 SE13      29.83R FOG
$$

KSZ066>073-081>083-090>101-251400-
SOUTHEAST KANSAS

CITY           SKY/WX    TMP DP  RH WIND       PRES   REMARKS
CHANUTE        CLOUDY    67  60  78 S16       29.86S
COFFEYVILLE    CLOUDY    65  62  90 SE17      29.90S
HUTCHINSON     CLOUDY    67  63  87 SE18      29.82R
MEDICINE LODGE   N/A     68  65  90 SE10G20   29.81R
NEWTON         CLOUDY    66  59  77 S18G26    29.85S
PARSONS        CLOUDY    66  62  87 SE12G24   29.88F
WICHITA INTL   CLOUDY    67  63  87 SE22G29   29.84R
WICHITA JABRA  CLOUDY    65  64  97 SE16G24   29.83S
WICHITA MCCONL CLOUDY    66  63  91 S18       29.85R
WINFIELD       CLOUDY    66  64  93 SE14      29.88F
$$

KSZ007>012-019>026-033>040-048>060-102>105-251400-
NORTHEAST KANSAS

CITY           SKY/WX    TMP DP  RH WIND       PRES   REMARKS
CONCORDIA      CLOUDY    61  58  90 NW10      29.91R
EMPORIA        PTSUNNY   66  59  78 S13G23    29.84R
LAWRENCE       CLOUDY    69  57  65 W5        29.85R
MANHATTAN      LGT RAIN  65  60  84 N6        29.88R
MARYSVILLE     CLOUDY    61  61 100 E5        29.88F
OLATHE IND     CLOUDY    68  56  65 S9        29.85R
OLATHE EXE     CLOUDY    68  54  60 S8        29.85R
SALINA         CLOUDY    67  61  81 S13       29.82F
TOPEKA BILLARD CLOUDY    66  61  84 NW3       29.86R
TOPEKA FORBES  CLOUDY    68  59  73 N3        29.87R
$$



USA.gov is the U.S. government's official web portal to all federal, state and local government web resources and services.